| time (UTC) | temp F | wind direction | speed knots | gust knots | rain 1hr in | rain 24hr in | rain mn in | humidity % | barometer mb |
| 20260504033012 | 41 | 235 | 0.0 | 0.0 | 0.00 | 0.00 | 0.00 | 73 | 1016.7 |
| 20260504031518 | 40 | 234 | 0.0 | 0.0 | 0.00 | 0.00 | 0.00 | 76 | 1016.4 |
| 20260504030015 | 40 | 245 | 0.0 | 0.0 | 0.00 | 0.00 | 0.00 | 75 | 1016.4 |
| 20260504024510 | 39 | 245 | 0.0 | 0.0 | 0.00 | 0.00 | 0.00 | 76 | 1016.7 |
| 20260504023015 | 39 | 245 | 0.0 | 0.0 | 0.00 | 0.00 | 0.00 | 78 | 1016.6 |
| 20260504021515 | 39 | 245 | 0.0 | 0.0 | 0.00 | 0.00 | 0.00 | 78 | 1016.7 |
| 20260504020016 | 39 | 245 | 0.0 | 0.0 | 0.00 | 0.00 | 0.00 | 74 | 1016.7 |
| 20260504014517 | 39 | 245 | 0.0 | 0.0 | 0.00 | 0.00 | 0.00 | 76 | 1016.6 |
| 20260504013017 | 41 | 245 | 0.0 | 0.9 | 0.00 | 0.00 | 0.00 | 69 | 1016.2 |
| 20260504011514 | 42 | 245 | 0.0 | 0.0 | 0.00 | 0.00 | 0.00 | 69 | 1016.2 |
| 20260504010017 | 42 | 245 | 0.0 | 0.0 | 0.00 | 0.00 | 0.00 | 68 | 1016.0 |
| 20260504004519 | 44 | 245 | 0.0 | 0.0 | 0.00 | 0.00 | 0.00 | 61 | 1015.9 |
| 20260504003020 | 46 | 245 | 0.0 | 0.0 | 0.00 | 0.00 | 0.00 | 57 | 1015.8 |
| 20260504001516 | 48 | 245 | 0.0 | 0.0 | 0.00 | 0.00 | 0.00 | 52 | 1015.6 |
| 20260504000017 | 51 | 247 | 0.0 | 0.9 | 0.00 | 0.00 | 0.00 | 43 | 1015.7 |
| 20260503234521 | 54 | 295 | 0.0 | 2.6 | 0.00 | 0.00 | 0.00 | 36 | 1015.6 |
| 20260503233018 | 56 | 313 | 3.5 | 7.0 | 0.00 | 0.00 | 0.00 | 31 | 1015.7 |
| 20260503231523 | 55 | 310 | 2.6 | 5.2 | 0.00 | 0.00 | 0.00 | 31 | 1015.7 |
| 20260503230018 | 57 | 289 | 2.6 | 5.2 | 0.00 | 0.00 | 0.00 | 30 | 1015.9 |
| 20260503224521 | 57 | 65 | 1.7 | 10.4 | 0.00 | 0.00 | 0.00 | 29 | 1015.9 |
| 20260503223023 | 57 | 297 | 3.5 | 6.1 | 0.00 | 0.00 | 0.00 | 30 | 1015.9 |
| 20260503221520 | 57 | 295 | 4.3 | 7.8 | 0.00 | 0.00 | 0.00 | 29 | 1015.8 |
| 20260503220022 | 57 | 268 | 3.5 | 9.6 | 0.00 | 0.00 | 0.00 | 31 | 1015.8 |
| 20260503214536 | 57 | 292 | 6.1 | 7.8 | 0.00 | 0.00 | 0.00 | 31 | 1015.9 |
| 20260503213022 | 57 | 248 | 5.2 | 9.6 | 0.00 | 0.00 | 0.00 | 30 | 1015.9 |
| 20260503211523 | 57 | 271 | 1.7 | 9.6 | 0.00 | 0.00 | 0.00 | 30 | 1016.0 |
| 20260503210012 | 56 | 295 | 1.7 | 7.0 | 0.00 | 0.00 | 0.00 | 30 | 1016.1 |
| 20260503204513 | 57 | 326 | 5.2 | 9.6 | 0.00 | 0.00 | 0.00 | 34 | 1016.2 |
| 20260503203017 | 56 | 287 | 0.9 | 9.6 | 0.00 | 0.00 | 0.00 | 33 | 1016.4 |
| 20260503201524 | 55 | 301 | 5.2 | 12.2 | 0.00 | 0.00 | 0.00 | 31 | 1016.6 |
| 20260503200033 | 55 | 314 | 2.6 | 10.4 | 0.00 | 0.00 | 0.00 | 31 | 1016.8 |
| 20260503194513 | 55 | 248 | 3.5 | 9.6 | 0.00 | 0.00 | 0.00 | 36 | 1017.1 |
| 20260503193015 | 54 | 283 | 7.0 | 13.0 | 0.00 | 0.00 | 0.00 | 32 | 1017.3 |
| 20260503191522 | 53 | 302 | 2.6 | 9.6 | 0.00 | 0.00 | 0.00 | 30 | 1017.7 |
| 20260503190025 | 54 | 302 | 6.1 | 14.8 | 0.00 | 0.00 | 0.00 | 28 | 1017.9 |
| 20260503184538 | 53 | 300 | 5.2 | 10.4 | 0.00 | 0.00 | 0.00 | 35 | 1018.1 |
| 20260503183015 | 53 | 258 | 7.0 | 11.3 | 0.00 | 0.00 | 0.00 | 35 | 1018.1 |
| 20260503181518 | 52 | 227 | 4.3 | 13.0 | 0.00 | 0.00 | 0.00 | 38 | 1018.2 |
| 20260503180040 | 51 | 45 | 4.3 | 11.3 | 0.00 | 0.00 | 0.00 | 39 | 1018.5 |
| 20260503174514 | 51 | 298 | 5.2 | 11.3 | 0.00 | 0.00 | 0.00 | 35 | 1018.3 |
| 20260503173013 | 51 | 319 | 5.2 | 14.8 | 0.00 | 0.00 | 0.00 | 39 | 1018.7 |
| 20260503171518 | 50 | 274 | 5.2 | 10.4 | 0.00 | 0.00 | 0.00 | 42 | 1018.6 |
| 20260503081528 | 33 | 274 | 0.9 | 2.6 | 0.00 | 0.00 | 0.00 | 81 | 1016.5 |
| 20260503071507 | 35 | 257 | 2.6 | 5.2 | 0.00 | 0.00 | 0.00 | 76 | 1016.2 |
| 20260503054516 | 37 | 254 | 2.6 | 4.3 | 0.00 | 0.00 | 0.00 | 71 | 1016.2 |
| 20260503053017 | 37 | 241 | 1.7 | 4.3 | 0.00 | 0.00 | 0.00 | 71 | 1016.2 |
| 20260503051502 | 37 | 254 | 2.6 | 5.2 | 0.00 | 0.00 | 0.00 | 71 | 1016.0 |
| 20260503050006 | 36 | 236 | 0.9 | 1.7 | 0.00 | 0.00 | 0.00 | 72 | 1015.9 |
| 20260503044507 | 37 | 238 | 0.9 | 2.6 | 0.00 | 0.00 | 0.00 | 70 | 1015.8 |
| 20260503043014 | 38 | 262 | 1.7 | 4.3 | 0.00 | 0.00 | 0.00 | 66 | 1015.8 |
| 20260503041518 | 38 | 122 | 1.7 | 3.5 | 0.00 | 0.00 | 0.00 | 65 | 1015.8 |
| 20260503040002 | 39 | 256 | 0.0 | 5.2 | 0.00 | 0.00 | 0.00 | 64 | 1015.7 |
| 20260503034506 | 40 | 18 | 0.0 | 3.5 | 0.00 | 0.00 | 0.00 | 61 | 1015.7 |